Regional Weather Roundup
Issued by NWS

Home | Current Version | Previous Version | Text Only | Print | Product List | Glossary On
Versions: 1 2 3 4 5 6 7 8 9 10 11 12 13 14 15 16 17 18 19 20 21 22 23 24 25 26 27 28 29 30 31 32 33 34 35 36 37 38 39 40 41 42 43 44 45 46 47 48 49 50
799
ASUS44 KOUN 062110
RWROK

WEATHER ROUNDUP FOR OKLAHOMA
NATIONAL WEATHER SERVICE NORMAN OK
300 PM CST SAT FEB 06 2016

NOTE: "FAIR" INDICATES FEW OR NO CLOUDS BELOW 12,000 FEET WITH NO
      SIGNIFICANT WEATHER AND/OR OBSTRUCTIONS TO VISIBILITY.

OKZ001>007-009>012-014-015-017-062200-
NORTHWEST OKLAHOMA AND THE PANHANDLE

CITY           SKY/WX    TMP DP  RH WIND       PRES   REMARKS
GAGE           SUNNY     54  14  20 W10       30.26F
GUYMON         SUNNY     56   9  15 SW12      30.21F
$$

OKZ016-021>023-033>039-044-045-062200-
SOUTHWEST OKLAHOMA

CITY           SKY/WX    TMP DP  RH WIND       PRES   REMARKS
LAWTON/REGL    SUNNY     52  24  33 MISG      30.34F
LAWTON/FT SILL SUNNY     53  26  35 NW6       30.31F
FREDERICK      SUNNY     53  25  33 NW6       30.31F
CLINTON        SUNNY     52  16  24 VRB3      30.31F
HOBART         SUNNY     52  25  35 N3        30.32F
ALTUS AFB      SUNNY     52  20  28 VRB3      30.32F
$$

OKZ018>020-024>031-062200-
CENTRAL OKLAHOMA

CITY           SKY/WX    TMP DP  RH WIND       PRES   REMARKS
OKLAHOMA CITY  MOSUNNY   50  26  39 W9        30.31F
OKC/WILEY POST SUNNY     50  28  42 NW8       30.32F
OKC/TINKER AFB SUNNY     51  26  38 W6        30.30F
STILLWATER     SUNNY     51  28  41 W8        30.31F
GUTHRIE        SUNNY     49  27  42 SW6       30.31F
$$

OKZ008-013-054>072-062200-
NORTHEAST OKLAHOMA

CITY           SKY/WX    TMP DP  RH WIND       PRES   REMARKS
TULSA          MOSUNNY   54  31  41 W5        30.28F
TULSA/JONES    MOSUNNY   54  30  40 SW6       30.30F
PONCA CITY     SUNNY     49  29  46 SW8       30.30F
BARTLESVILLE   SUNNY     53  26  35 SW8       30.30F
MUSKOGEE       MOSUNNY   56  30  37 W6        30.31F
$$

OKZ032-040>043-046>053-073>077-062200-
SOUTH CENTRAL/SOUTHEAST OKLAHOMA

CITY           SKY/WX    TMP DP  RH WIND       PRES   REMARKS
ARDMORE/DWNTWN PTSUNNY   52  30  43 W5        30.33F
MCALESTER      MOSUNNY   54  32  43 W9        30.32S
$$





USA.gov is the U.S. government's official web portal to all federal, state and local government web resources and services.